Time,TemperatureF,DewpointF,PressureIn,WindDirection,WindDirectionDegrees,WindSpeedMPH,WindSpeedGustMPH,Humidity,HourlyPrecipIn,Conditions,Clouds,dailyrainin,SoftwareType,DateUTC
2013-04-07 00:00:00,54.0,34.2,30.14,NNW,332,1.0,13.0,47,0.00,,,0.00,Wunderground v.1.15,2013-04-07 04:00:00,
2013-04-07 00:05:00,53.7,33.9,30.13,SSE,161,1.0,13.0,47,0.00,,,0.00,Wunderground v.1.15,2013-04-07 04:05:00,
2013-04-07 00:10:00,53.7,33.9,30.14,SE,139,2.0,2.0,47,0.00,,,0.00,Wunderground v.1.15,2013-04-07 04:10:00,
2013-04-07 00:15:00,53.6,33.3,30.14,South,169,1.0,9.0,46,0.00,,,0.00,Wunderground v.1.15,2013-04-07 04:15:00,
2013-04-07 00:20:00,53.6,33.8,30.15,SSW,202,1.0,9.0,47,0.00,,,0.00,Wunderground v.1.15,2013-04-07 04:20:00,
2013-04-07 00:25:00,53.6,33.8,30.15,SSW,195,1.0,9.0,47,0.00,,,0.00,Wunderground v.1.15,2013-04-07 04:25:00,
2013-04-07 00:35:00,53.2,33.5,30.15,South,185,1.0,9.0,47,0.00,,,0.00,Wunderground v.1.15,2013-04-07 04:35:00,
2013-04-07 00:40:00,53.1,33.9,30.15,South,190,2.0,9.0,48,0.00,,,0.00,Wunderground v.1.15,2013-04-07 04:40:00,
2013-04-07 00:45:00,52.9,33.7,30.15,South,190,2.0,9.0,48,0.00,,,0.00,Wunderground v.1.15,2013-04-07 04:45:00,
2013-04-07 00:50:00,52.8,34.2,30.15,South,174,1.0,1.0,49,0.00,,,0.00,Wunderground v.1.15,2013-04-07 04:50:00,
2013-04-07 00:55:00,52.5,33.9,30.15,South,175,1.0,9.0,49,0.00,,,0.00,Wunderground v.1.15,2013-04-07 04:55:00,
2013-04-07 01:00:00,52.3,33.7,30.14,South,187,0.0,9.0,49,0.00,,,0.00,Wunderground v.1.15,2013-04-07 05:00:00,
2013-04-07 01:05:00,52.1,34.0,30.15,South,182,0.0,11.0,50,0.00,,,0.00,Wunderground v.1.15,2013-04-07 05:05:00,
2013-04-07 01:15:00,51.9,33.8,30.15,South,185,0.0,11.0,50,0.00,,,0.00,Wunderground v.1.15,2013-04-07 05:15:00,
2013-04-07 01:20:00,51.9,33.8,30.15,South,186,1.0,11.0,50,0.00,,,0.00,Wunderground v.1.15,2013-04-07 05:20:00,
2013-04-07 01:25:00,51.9,33.8,30.15,SSW,192,1.0,11.0,50,0.00,,,0.00,Wunderground v.1.15,2013-04-07 05:25:00,
2013-04-07 01:30:00,51.8,34.2,30.15,South,190,1.0,1.0,51,0.00,,,0.00,Wunderground v.1.15,2013-04-07 05:30:00,
2013-04-07 01:40:00,51.6,34.0,30.15,SSW,198,0.0,11.0,51,0.00,,,0.00,Wunderground v.1.15,2013-04-07 05:40:00,
2013-04-07 01:45:00,51.5,34.0,30.14,SSE,165,0.0,11.0,51,0.00,,,0.00,Wunderground v.1.15,2013-04-07 05:45:00,
2013-04-07 01:50:00,51.4,34.3,30.14,South,175,0.0,11.0,52,0.00,,,0.00,Wunderground v.1.15,2013-04-07 05:50:00,
2013-04-07 01:55:00,51.2,34.2,30.14,South,171,0.0,11.0,52,0.00,,,0.00,Wunderground v.1.15,2013-04-07 05:55:00,
2013-04-07 02:05:00,51.3,33.8,30.14,South,169,1.0,11.0,51,0.00,,,0.00,Wunderground v.1.15,2013-04-07 06:05:00,
2013-04-07 02:10:00,51.4,33.9,30.14,SSW,198,1.0,8.0,51,0.00,,,0.00,Wunderground v.1.15,2013-04-07 06:10:00,
2013-04-07 02:20:00,51.2,34.2,30.13,South,190,2.0,2.0,52,0.00,,,0.00,Wunderground v.1.15,2013-04-07 06:20:00,
2013-04-07 02:30:00,51.0,34.0,30.13,NNE,30,1.0,8.0,52,0.00,,,0.00,Wunderground v.1.15,2013-04-07 06:30:00,
2013-04-07 02:35:00,50.9,33.9,30.13,SSW,198,1.0,8.0,52,0.00,,,0.00,Wunderground v.1.15,2013-04-07 06:35:00,
2013-04-07 02:40:00,50.6,34.1,30.13,SSE,164,0.0,8.0,53,0.00,,,0.00,Wunderground v.1.15,2013-04-07 06:40:00,
2013-04-07 02:45:00,50.3,33.8,30.13,SSE,159,0.0,8.0,53,0.00,,,0.00,Wunderground v.1.15,2013-04-07 06:45:00,
2013-04-07 02:50:00,50.2,34.2,30.13,South,170,1.0,1.0,54,0.00,,,0.00,Wunderground v.1.15,2013-04-07 06:50:00,
2013-04-07 02:55:00,50.1,33.6,30.13,South,179,1.0,4.0,53,0.00,,,0.00,Wunderground v.1.15,2013-04-07 06:55:00,
2013-04-07 03:00:00,50.1,33.6,30.12,South,173,1.0,1.0,53,0.00,,,0.00,Wunderground v.1.15,2013-04-07 07:00:00,
2013-04-07 03:05:00,50.0,33.5,30.13,South,175,1.0,8.0,53,0.00,,,0.00,Wunderground v.1.15,2013-04-07 07:05:00,
2013-04-07 03:15:00,50.0,33.5,30.12,South,181,2.0,8.0,53,0.00,,,0.00,Wunderground v.1.15,2013-04-07 07:15:00,
2013-04-07 03:20:00,50.0,33.1,30.12,SSE,159,2.0,2.0,52,0.00,,,0.00,Wunderground v.1.15,2013-04-07 07:20:00,
2013-04-07 03:25:00,50.0,33.5,30.13,SSW,199,2.0,8.0,53,0.00,,,0.00,Wunderground v.1.15,2013-04-07 07:25:00,
2013-04-07 03:35:00,50.0,33.5,30.12,South,173,2.0,8.0,53,0.00,,,0.00,Wunderground v.1.15,2013-04-07 07:35:00,
2013-04-07 03:40:00,49.9,33.0,30.12,SSE,159,1.0,1.0,52,0.00,,,0.00,Wunderground v.1.15,2013-04-07 07:40:00,
2013-04-07 03:45:00,49.8,33.3,30.12,SSW,194,1.0,8.0,53,0.00,,,0.00,Wunderground v.1.15,2013-04-07 07:45:00,
2013-04-07 03:50:00,49.6,33.2,30.12,SSE,150,1.0,1.0,53,0.00,,,0.00,Wunderground v.1.15,2013-04-07 07:50:00,
2013-04-07 03:55:00,49.4,33.4,30.12,South,182,1.0,8.0,54,0.00,,,0.00,Wunderground v.1.15,2013-04-07 07:55:00,
2013-04-07 04:05:00,48.7,33.7,30.11,South,179,1.0,9.0,56,0.00,,,0.00,Wunderground v.1.15,2013-04-07 08:05:00,
2013-04-07 04:15:00,48.1,34.4,30.12,SSE,163,1.0,5.0,59,0.00,,,0.00,Wunderground v.1.15,2013-04-07 08:15:00,
2013-04-07 04:20:00,47.8,35.0,30.11,SSW,200,1.0,9.0,61,0.00,,,0.00,Wunderground v.1.15,2013-04-07 08:20:00,
2013-04-07 04:30:00,47.2,34.8,30.11,SSE,157,1.0,9.0,62,0.00,,,0.00,Wunderground v.1.15,2013-04-07 08:30:00,
2013-04-07 04:35:00,47.0,34.6,30.11,SSE,163,1.0,9.0,62,0.00,,,0.00,Wunderground v.1.15,2013-04-07 08:35:00,
2013-04-07 04:40:00,46.9,35.0,30.12,SSW,199,1.0,10.0,63,0.00,,,0.00,Wunderground v.1.15,2013-04-07 08:40:00,
2013-04-07 04:50:00,46.8,34.9,30.12,South,174,2.0,2.0,63,0.00,,,0.00,Wunderground v.1.15,2013-04-07 08:50:00,
2013-04-07 05:00:00,46.7,35.2,30.13,SSE,161,2.0,2.0,64,0.00,,,0.00,Wunderground v.1.15,2013-04-07 09:00:00,
2013-04-07 05:05:00,46.7,35.2,30.12,SSE,161,2.0,6.0,64,0.00,,,0.00,Wunderground v.1.15,2013-04-07 09:05:00,
2013-04-07 05:15:00,46.6,35.1,30.12,South,169,1.0,10.0,64,0.00,,,0.00,Wunderground v.1.15,2013-04-07 09:15:00,
2013-04-07 05:20:00,46.6,35.1,30.12,SSE,166,1.0,1.0,64,0.00,,,0.00,Wunderground v.1.15,2013-04-07 09:20:00,
2013-04-07 05:25:00,46.6,35.5,30.11,SSE,166,0.0,10.0,65,0.00,,,0.00,Wunderground v.1.15,2013-04-07 09:25:00,
2013-04-07 05:30:00,46.6,35.5,30.12,North,32767,-999.0,10.0,65,0.00,,,0.00,Wunderground v.1.15,2013-04-07 09:30:00,
2013-04-07 05:35:00,46.6,35.5,30.11,North,32767,-999.0,10.0,65,0.00,,,0.00,Wunderground v.1.15,2013-04-07 09:35:00,
2013-04-07 05:40:00,46.6,35.5,30.11,North,32767,-999.0,10.0,65,0.00,,,0.00,Wunderground v.1.15,2013-04-07 09:40:00,
2013-04-07 05:50:00,46.7,35.6,30.12,North,32767,-999.0,10.0,65,0.00,,,0.00,Wunderground v.1.15,2013-04-07 09:50:00,
2013-04-07 06:00:00,46.9,35.4,30.12,North,32767,-999.0,10.0,64,0.00,,,0.00,Wunderground v.1.15,2013-04-07 10:00:00,
2013-04-07 06:05:00,46.9,35.4,30.12,North,32767,-999.0,10.0,64,0.00,,,0.00,Wunderground v.1.15,2013-04-07 10:05:00,
2013-04-07 06:15:00,47.0,35.4,30.12,North,32767,-999.0,6.0,64,0.00,,,0.00,Wunderground v.1.15,2013-04-07 10:15:00,
2013-04-07 06:25:00,47.0,35.4,30.13,North,32767,-999.0,6.0,64,0.00,,,0.00,Wunderground v.1.15,2013-04-07 10:25:00,
2013-04-07 06:30:00,47.1,35.5,30.13,North,32767,-999.0,6.0,64,0.00,,,0.00,Wunderground v.1.15,2013-04-07 10:30:00,
2013-04-07 06:40:00,47.3,35.3,30.13,North,32767,-999.0,6.0,63,0.00,,,0.00,Wunderground v.1.15,2013-04-07 10:40:00,
2013-04-07 06:45:00,47.3,35.3,30.13,North,32767,-999.0,6.0,63,0.00,,,0.00,Wunderground v.1.15,2013-04-07 10:45:00,
2013-04-07 06:55:00,47.5,35.5,30.13,North,32767,-999.0,6.0,63,0.00,,,0.00,Wunderground v.1.15,2013-04-07 10:55:00,
2013-04-07 07:00:00,47.6,35.6,30.12,North,32767,-999.0,6.0,63,0.00,,,0.00,Wunderground v.1.15,2013-04-07 11:00:00,
2013-04-07 07:05:00,47.5,35.5,30.13,North,32767,-999.0,6.0,63,0.00,,,0.00,Wunderground v.1.15,2013-04-07 11:05:00,
2013-04-07 07:15:00,47.6,35.6,30.13,North,32767,-999.0,0.0,63,0.00,,,0.00,Wunderground v.1.15,2013-04-07 11:15:00,
2013-04-07 07:25:00,47.6,36.0,30.13,North,32767,-999.0,0.0,64,0.00,,,0.00,Wunderground v.1.15,2013-04-07 11:25:00,
2013-04-07 07:35:00,47.5,35.5,30.13,North,32767,-999.0,0.0,63,0.00,,,0.00,Wunderground v.1.15,2013-04-07 11:35:00,
2013-04-07 07:40:00,47.4,35.4,30.14,North,32767,-999.0,0.0,63,0.00,,,0.00,Wunderground v.1.15,2013-04-07 11:40:00,
2013-04-07 07:45:00,47.4,35.4,30.14,North,32767,-999.0,0.0,63,0.00,,,0.00,Wunderground v.1.15,2013-04-07 11:45:00,
2013-04-07 07:50:00,47.4,35.8,30.14,North,32767,-999.0,0.0,64,0.00,,,0.00,Wunderground v.1.15,2013-04-07 11:50:00,
2013-04-07 07:55:00,47.4,35.8,30.14,North,32767,-999.0,0.0,64,0.00,,,0.00,Wunderground v.1.15,2013-04-07 11:55:00,
2013-04-07 08:05:00,47.5,35.9,30.14,North,32767,-999.0,0.0,64,0.00,,,0.00,Wunderground v.1.15,2013-04-07 12:05:00,
2013-04-07 08:10:00,47.6,36.0,30.14,North,32767,-999.0,0.0,64,0.00,,,0.00,Wunderground v.1.15,2013-04-07 12:10:00,
2013-04-07 08:20:00,47.8,36.2,30.15,North,32767,-999.0,0.0,64,0.00,,,0.00,Wunderground v.1.15,2013-04-07 12:20:00,
2013-04-07 08:25:00,47.7,36.1,30.15,North,32767,-999.0,0.0,64,0.00,,,0.00,Wunderground v.1.15,2013-04-07 12:25:00,
2013-04-07 08:30:00,47.7,36.1,30.15,North,32767,-999.0,0.0,64,0.00,,,0.00,Wunderground v.1.15,2013-04-07 12:30:00,
2013-04-07 08:40:00,47.8,36.2,30.15,North,32767,-999.0,0.0,64,0.00,,,0.00,Wunderground v.1.15,2013-04-07 12:40:00,
2013-04-07 08:50:00,48.1,36.1,30.16,North,32767,-999.0,0.0,63,0.00,,,0.00,Wunderground v.1.15,2013-04-07 12:50:00,
2013-04-07 08:55:00,48.4,36.8,30.16,North,32767,-999.0,0.0,64,0.00,,,0.00,Wunderground v.1.15,2013-04-07 12:55:00,
2013-04-07 09:00:00,48.5,36.5,30.16,North,32767,-999.0,0.0,63,0.00,,,0.00,Wunderground v.1.15,2013-04-07 13:00:00,
2013-04-07 09:05:00,48.7,36.7,30.16,North,32767,-999.0,0.0,63,0.00,,,0.00,Wunderground v.1.15,2013-04-07 13:05:00,
2013-04-07 09:15:00,49.0,36.5,30.16,North,32767,-999.0,0.0,62,0.00,,,0.00,Wunderground v.1.15,2013-04-07 13:15:00,
2013-04-07 09:20:00,49.2,36.7,30.16,North,32767,-999.0,0.0,62,0.00,,,0.00,Wunderground v.1.15,2013-04-07 13:20:00,
2013-04-07 09:25:00,49.5,36.6,30.16,North,32767,-999.0,0.0,61,0.00,,,0.00,Wunderground v.1.15,2013-04-07 13:25:00,
2013-04-07 09:35:00,50.1,36.7,30.16,North,32767,-999.0,0.0,60,0.00,,,0.00,Wunderground v.1.15,2013-04-07 13:35:00,
2013-04-07 09:40:00,50.4,37.0,30.16,North,32767,-999.0,0.0,60,0.00,,,0.00,Wunderground v.1.15,2013-04-07 13:40:00,
2013-04-07 09:50:00,51.0,37.2,30.15,North,32767,-999.0,0.0,59,0.00,,,0.00,Wunderground v.1.15,2013-04-07 13:50:00,
2013-04-07 09:55:00,51.2,37.4,30.15,North,32767,-999.0,0.0,59,0.00,,,0.00,Wunderground v.1.15,2013-04-07 13:55:00,
2013-04-07 10:00:00,51.5,37.2,30.15,North,32767,-999.0,0.0,58,0.00,,,0.00,Wunderground v.1.15,2013-04-07 14:00:00,
2013-04-07 10:05:00,51.8,37.5,30.15,North,32767,-999.0,0.0,58,0.00,,,0.00,Wunderground v.1.15,2013-04-07 14:05:00,
2013-04-07 10:15:00,52.6,38.2,30.15,North,32767,-999.0,0.0,58,0.00,,,0.00,Wunderground v.1.15,2013-04-07 14:15:00,
2013-04-07 10:20:00,52.8,37.5,30.15,North,32767,-999.0,0.0,56,0.00,,,0.00,Wunderground v.1.15,2013-04-07 14:20:00,
2013-04-07 10:25:00,53.1,38.3,30.16,North,32767,-999.0,0.0,57,0.00,,,0.00,Wunderground v.1.15,2013-04-07 14:25:00,
2013-04-07 10:30:00,53.5,37.7,30.15,North,32767,-999.0,0.0,55,0.00,,,0.00,Wunderground v.1.15,2013-04-07 14:30:00,
2013-04-07 10:40:00,54.4,38.1,30.16,North,32767,-999.0,0.0,54,0.00,,,0.00,Wunderground v.1.15,2013-04-07 14:40:00,
2013-04-07 10:45:00,54.8,38.5,30.16,North,32767,-999.0,0.0,54,0.00,,,0.00,Wunderground v.1.15,2013-04-07 14:45:00,
2013-04-07 10:50:00,55.0,38.6,30.16,North,32767,-999.0,0.0,54,0.00,,,0.00,Wunderground v.1.15,2013-04-07 14:50:00,
2013-04-07 11:00:00,55.7,38.3,30.15,North,32767,-999.0,0.0,52,0.00,,,0.00,Wunderground v.1.15,2013-04-07 15:00:00,
2013-04-07 11:05:00,55.8,38.9,30.15,North,32767,-999.0,0.0,53,0.00,,,0.00,Wunderground v.1.15,2013-04-07 15:05:00,
2013-04-07 11:15:00,57.5,39.5,30.16,North,32767,-999.0,0.0,51,0.00,,,0.00,Wunderground v.1.15,2013-04-07 15:15:00,
2013-04-07 11:25:00,58.4,39.3,30.16,North,32767,-999.0,0.0,49,0.00,,,0.00,Wunderground v.1.15,2013-04-07 15:25:00,
2013-04-07 11:35:00,59.5,40.3,30.16,North,32767,-999.0,0.0,49,0.00,,,0.00,Wunderground v.1.15,2013-04-07 15:35:00,
2013-04-07 11:40:00,59.6,40.9,30.16,North,32767,-999.0,0.0,50,0.00,,,0.00,Wunderground v.1.15,2013-04-07 15:40:00,
2013-04-07 11:50:00,61.1,41.2,30.15,North,32767,-999.0,0.0,48,0.00,,,0.00,Wunderground v.1.15,2013-04-07 15:50:00,
2013-04-07 11:55:00,61.3,41.4,30.15,North,32767,-999.0,0.0,48,0.00,,,0.00,Wunderground v.1.15,2013-04-07 15:55:00,
2013-04-07 12:05:00,62.2,41.2,30.15,North,32767,-999.0,0.0,46,0.00,,,0.00,Wunderground v.1.15,2013-04-07 16:05:00,
2013-04-07 12:15:00,62.3,42.3,30.14,North,32767,-999.0,0.0,48,0.00,,,0.00,Wunderground v.1.15,2013-04-07 16:15:00,
2013-04-07 12:20:00,63.3,42.2,30.14,North,32767,-999.0,0.0,46,0.00,,,0.00,Wunderground v.1.15,2013-04-07 16:20:00,
2013-04-07 12:25:00,62.6,41.5,30.14,North,32767,-999.0,0.0,46,0.00,,,0.00,Wunderground v.1.15,2013-04-07 16:25:00,
2013-04-07 12:30:00,62.8,41.7,30.13,North,32767,-999.0,0.0,46,0.00,,,0.00,Wunderground v.1.15,2013-04-07 16:30:00,
2013-04-07 12:40:00,61.8,41.9,30.13,North,32767,-999.0,0.0,48,0.00,,,0.00,Wunderground v.1.15,2013-04-07 16:40:00,
2013-04-07 12:45:00,62.6,41.5,30.13,North,32767,-999.0,0.0,46,0.00,,,0.00,Wunderground v.1.15,2013-04-07 16:45:00,
2013-04-07 12:55:00,62.4,41.3,30.13,North,32767,-999.0,0.0,46,0.00,,,0.00,Wunderground v.1.15,2013-04-07 16:55:00,
2013-04-07 13:05:00,65.1,42.6,30.12,North,32767,-999.0,0.0,44,0.00,,,0.00,Wunderground v.1.15,2013-04-07 17:05:00,
2013-04-07 13:15:00,64.9,45.3,30.11,North,32767,-999.0,0.0,49,0.00,,,0.00,Wunderground v.1.15,2013-04-07 17:15:00,
2013-04-07 13:25:00,64.5,42.1,30.11,North,32767,-999.0,0.0,44,0.00,,,0.00,Wunderground v.1.15,2013-04-07 17:25:00,
2013-04-07 13:30:00,65.4,41.7,30.10,North,32767,-999.0,0.0,42,0.00,,,0.00,Wunderground v.1.15,2013-04-07 17:30:00,
2013-04-07 13:35:00,65.5,42.4,30.10,North,32767,-999.0,0.0,43,0.00,,,0.00,Wunderground v.1.15,2013-04-07 17:35:00,
2013-04-07 13:40:00,65.0,43.1,30.10,North,32767,-999.0,0.0,45,0.00,,,0.00,Wunderground v.1.15,2013-04-07 17:40:00,
2013-04-07 13:45:00,65.2,43.3,30.10,North,32767,-999.0,0.0,45,0.00,,,0.00,Wunderground v.1.15,2013-04-07 17:45:00,
2013-04-07 13:55:00,66.4,43.2,30.09,North,32767,-999.0,0.0,43,0.00,,,0.00,Wunderground v.1.15,2013-04-07 17:55:00,
2013-04-07 14:00:00,66.9,43.0,30.09,North,32767,-999.0,0.0,42,0.00,,,0.00,Wunderground v.1.15,2013-04-07 18:00:00,
2013-04-07 14:10:00,67.2,43.3,30.08,North,32767,-999.0,0.0,42,0.00,,,0.00,Wunderground v.1.15,2013-04-07 18:10:00,
2013-04-07 14:15:00,66.5,43.3,30.08,North,32767,-999.0,0.0,43,0.00,,,0.00,Wunderground v.1.15,2013-04-07 18:15:00,
2013-04-07 14:20:00,66.6,44.6,30.08,SW,222,7.0,7.0,45,0.00,,,0.00,Wunderground v.1.15,2013-04-07 18:20:00,
2013-04-07 14:30:00,68.1,45.4,30.07,South,190,2.0,6.0,44,0.00,,,0.00,Wunderground v.1.15,2013-04-07 18:30:00,
2013-04-07 14:35:00,68.6,45.2,30.07,SSW,192,4.0,9.0,43,0.00,,,0.00,Wunderground v.1.15,2013-04-07 18:35:00,
2013-04-07 14:40:00,67.0,44.4,30.07,SSW,196,6.0,6.0,44,0.00,,,0.00,Wunderground v.1.15,2013-04-07 18:40:00,
2013-04-07 14:45:00,67.4,45.9,30.07,South,177,5.0,6.0,46,0.00,,,0.00,Wunderground v.1.15,2013-04-07 18:45:00,
2013-04-07 14:55:00,68.2,44.8,30.07,South,180,2.0,10.0,43,0.00,,,0.00,Wunderground v.1.15,2013-04-07 18:55:00,
2013-04-07 15:00:00,67.9,45.2,30.06,South,186,5.0,5.0,44,0.00,,,0.00,Wunderground v.1.15,2013-04-07 19:00:00,
2013-04-07 15:05:00,68.4,44.4,30.06,SSW,195,6.0,6.0,42,0.00,,,0.00,Wunderground v.1.15,2013-04-07 19:05:00,
2013-04-07 15:15:00,68.9,44.9,30.05,SSE,165,6.0,20.0,42,0.00,,,0.00,Wunderground v.1.15,2013-04-07 19:15:00,
2013-04-07 15:20:00,68.5,45.7,30.05,South,174,4.0,4.0,44,0.00,,,0.00,Wunderground v.1.15,2013-04-07 19:20:00,
2013-04-07 15:30:00,67.2,45.1,30.05,SW,235,3.0,20.0,45,0.00,,,0.00,Wunderground v.1.15,2013-04-07 19:30:00,
2013-04-07 15:35:00,68.3,45.5,30.04,SSW,201,2.0,20.0,44,0.00,,,0.00,Wunderground v.1.15,2013-04-07 19:35:00,
2013-04-07 15:40:00,69.0,44.9,30.04,SW,221,3.0,20.0,42,0.00,,,0.00,Wunderground v.1.15,2013-04-07 19:40:00,
2013-04-07 15:45:00,69.3,45.8,30.04,South,191,4.0,20.0,43,0.00,,,0.00,Wunderground v.1.15,2013-04-07 19:45:00,
2013-04-07 15:50:00,68.6,44.6,30.04,South,187,6.0,20.0,42,0.00,,,0.00,Wunderground v.1.15,2013-04-07 19:50:00,
2013-04-07 15:55:00,68.6,45.2,30.04,South,188,7.0,20.0,43,0.00,,,0.00,Wunderground v.1.15,2013-04-07 19:55:00,
2013-04-07 16:05:00,68.4,45.6,30.04,South,188,4.0,7.0,44,0.00,,,0.00,Wunderground v.1.15,2013-04-07 20:05:00,
2013-04-07 16:15:00,67.5,45.4,30.04,SSE,168,5.0,15.0,45,0.00,,,0.00,Wunderground v.1.15,2013-04-07 20:15:00,
2013-04-07 16:20:00,67.3,45.2,30.04,South,184,5.0,15.0,45,0.00,,,0.00,Wunderground v.1.15,2013-04-07 20:20:00,
2013-04-07 16:30:00,67.0,44.9,30.04,South,188,6.0,6.0,45,0.00,,,0.00,Wunderground v.1.15,2013-04-07 20:30:00,
2013-04-07 16:35:00,66.3,44.3,30.04,South,179,6.0,9.0,45,0.00,,,0.00,Wunderground v.1.15,2013-04-07 20:35:00,
2013-04-07 16:40:00,65.4,44.6,30.04,South,186,6.0,6.0,47,0.00,,,0.00,Wunderground v.1.15,2013-04-07 20:40:00,
2013-04-07 16:45:00,65.5,44.7,30.03,SSW,203,4.0,7.0,47,0.00,,,0.00,Wunderground v.1.15,2013-04-07 20:45:00,
2013-04-07 16:55:00,65.9,46.2,30.03,South,184,4.0,5.0,49,0.00,,,0.00,Wunderground v.1.15,2013-04-07 20:55:00,
2013-04-07 17:05:00,66.2,45.9,30.03,South,188,5.0,5.0,48,0.00,,,0.00,Wunderground v.1.15,2013-04-07 21:05:00,
2013-04-07 17:10:00,65.7,44.9,30.04,South,173,6.0,6.0,47,0.00,,,0.00,Wunderground v.1.15,2013-04-07 21:10:00,
2013-04-07 17:20:00,65.9,45.1,30.04,SSW,194,4.0,15.0,47,0.00,,,0.00,Wunderground v.1.15,2013-04-07 21:20:00,
2013-04-07 17:30:00,65.9,46.2,30.04,WSW,238,2.0,15.0,49,0.00,,,0.00,Wunderground v.1.15,2013-04-07 21:30:00,
2013-04-07 17:35:00,65.5,45.8,30.04,SSE,157,3.0,15.0,49,0.00,,,0.00,Wunderground v.1.15,2013-04-07 21:35:00,
2013-04-07 17:45:00,65.0,45.9,30.04,SSW,195,2.0,15.0,50,0.00,,,0.00,Wunderground v.1.15,2013-04-07 21:45:00,
2013-04-07 17:50:00,64.9,45.8,30.04,WSW,247,2.0,15.0,50,0.00,,,0.00,Wunderground v.1.15,2013-04-07 21:50:00,
2013-04-07 17:55:00,64.7,45.6,30.04,South,180,3.0,15.0,50,0.00,,,0.00,Wunderground v.1.15,2013-04-07 21:55:00,
2013-04-07 18:00:00,64.5,45.4,30.04,SE,144,4.0,4.0,50,0.00,,,0.00,Wunderground v.1.15,2013-04-07 22:00:00,
2013-04-07 18:05:00,63.9,45.4,30.05,SSE,167,4.0,11.0,51,0.00,,,0.00,Wunderground v.1.15,2013-04-07 22:05:00,
2013-04-07 18:15:00,63.2,45.8,30.04,South,179,3.0,11.0,53,0.00,,,0.00,Wunderground v.1.15,2013-04-07 22:15:00,
2013-04-07 18:25:00,63.2,45.8,30.05,SSE,163,2.0,11.0,53,0.00,,,0.00,Wunderground v.1.15,2013-04-07 22:25:00,
2013-04-07 18:35:00,63.1,46.2,30.04,SSW,209,1.0,7.0,54,0.00,,,0.00,Wunderground v.1.15,2013-04-07 22:35:00,
2013-04-07 18:40:00,62.9,45.5,30.04,South,183,1.0,1.0,53,0.00,,,0.00,Wunderground v.1.15,2013-04-07 22:40:00,
2013-04-07 18:45:00,62.6,45.7,30.04,SSW,194,1.0,11.0,54,0.00,,,0.00,Wunderground v.1.15,2013-04-07 22:45:00,
2013-04-07 18:55:00,62.6,45.7,30.05,SSE,165,1.0,11.0,54,0.00,,,0.00,Wunderground v.1.15,2013-04-07 22:55:00,
2013-04-07 19:00:00,62.9,46.0,30.04,South,178,1.0,1.0,54,0.00,,,0.00,Wunderground v.1.15,2013-04-07 23:00:00,
2013-04-07 19:05:00,63.0,45.6,30.04,South,176,2.0,2.0,53,0.00,,,0.00,Wunderground v.1.15,2013-04-07 23:05:00,
2013-04-07 19:15:00,62.4,45.5,30.05,South,188,1.0,10.0,54,0.00,,,0.00,Wunderground v.1.15,2013-04-07 23:15:00,
2013-04-07 19:20:00,61.9,45.5,30.05,WSW,240,1.0,1.0,55,0.00,,,0.00,Wunderground v.1.15,2013-04-07 23:20:00,
2013-04-07 19:25:00,61.5,45.2,30.05,SSE,164,1.0,10.0,55,0.00,,,0.00,Wunderground v.1.15,2013-04-07 23:25:00,
2013-04-07 19:30:00,61.2,45.4,30.05,SSE,164,0.0,10.0,56,0.00,,,0.00,Wunderground v.1.15,2013-04-07 23:30:00,
2013-04-07 19:40:00,60.6,45.3,30.05,North,32767,-999.0,10.0,57,0.00,,,0.00,Wunderground v.1.15,2013-04-07 23:40:00,
2013-04-07 19:45:00,60.4,45.1,30.06,North,32767,-999.0,10.0,57,0.00,,,0.00,Wunderground v.1.15,2013-04-07 23:45:00,
2013-04-07 19:55:00,60.3,45.0,30.06,North,32767,-999.0,10.0,57,0.00,,,0.00,Wunderground v.1.15,2013-04-07 23:55:00,
2013-04-07 20:00:00,60.2,44.9,30.06,North,32767,-999.0,10.0,57,0.00,,,0.00,Wunderground v.1.15,2013-04-08 00:00:00,
2013-04-07 20:05:00,60.0,44.7,30.07,North,32767,-999.0,10.0,57,0.00,,,0.00,Wunderground v.1.15,2013-04-08 00:05:00,
2013-04-07 20:15:00,59.7,44.9,30.05,North,32767,-999.0,7.0,58,0.00,,,0.00,Wunderground v.1.15,2013-04-08 00:15:00,
2013-04-07 20:20:00,59.6,45.2,30.05,North,32767,-999.0,7.0,59,0.00,,,0.00,Wunderground v.1.15,2013-04-08 00:20:00,
2013-04-07 20:25:00,59.4,44.6,30.06,North,32767,-999.0,7.0,58,0.00,,,0.00,Wunderground v.1.15,2013-04-08 00:25:00,
2013-04-07 20:30:00,59.3,45.0,30.07,North,32767,-999.0,7.0,59,0.00,,,0.00,Wunderground v.1.15,2013-04-08 00:30:00,
2013-04-07 20:35:00,59.0,44.7,30.07,North,32767,-999.0,7.0,59,0.00,,,0.00,Wunderground v.1.15,2013-04-08 00:35:00,
2013-04-07 20:45:00,59.0,45.1,30.07,North,32767,-999.0,7.0,60,0.00,,,0.00,Wunderground v.1.15,2013-04-08 00:45:00,
2013-04-07 20:55:00,58.5,44.7,30.08,North,32767,-999.0,7.0,60,0.00,,,0.00,Wunderground v.1.15,2013-04-08 00:55:00,
2013-04-07 21:00:00,58.4,44.6,30.07,North,32767,-999.0,7.0,60,0.00,,,0.00,Wunderground v.1.15,2013-04-08 01:00:00,
2013-04-07 21:05:00,58.1,44.7,30.07,North,32767,-999.0,7.0,61,0.00,,,0.00,Wunderground v.1.15,2013-04-08 01:05:00,
2013-04-07 21:15:00,57.9,44.5,30.08,North,32767,-999.0,0.0,61,0.00,,,0.00,Wunderground v.1.15,2013-04-08 01:15:00,
2013-04-07 21:20:00,57.8,44.4,30.08,North,32767,-999.0,0.0,61,0.00,,,0.00,Wunderground v.1.15,2013-04-08 01:20:00,
2013-04-07 21:25:00,57.8,44.4,30.08,North,32767,-999.0,0.0,61,0.00,,,0.00,Wunderground v.1.15,2013-04-08 01:25:00,
2013-04-07 21:30:00,57.8,44.4,30.08,North,32767,-999.0,0.0,61,0.00,,,0.00,Wunderground v.1.15,2013-04-08 01:30:00,
2013-04-07 21:35:00,57.7,44.3,30.08,North,32767,-999.0,0.0,61,0.00,,,0.00,Wunderground v.1.15,2013-04-08 01:35:00,
2013-04-07 21:40:00,57.6,44.2,30.08,North,32767,-999.0,0.0,61,0.00,,,0.00,Wunderground v.1.15,2013-04-08 01:40:00,
2013-04-07 21:45:00,57.5,44.1,30.09,North,32767,-999.0,0.0,61,0.00,,,0.00,Wunderground v.1.15,2013-04-08 01:45:00,
2013-04-07 21:55:00,57.5,44.1,30.09,North,32767,-999.0,0.0,61,0.00,,,0.00,Wunderground v.1.15,2013-04-08 01:55:00,
2013-04-07 22:00:00,57.5,44.1,30.09,North,32767,-999.0,0.0,61,0.00,,,0.00,Wunderground v.1.15,2013-04-08 02:00:00,
2013-04-07 22:05:00,57.5,44.1,30.09,North,32767,-999.0,0.0,61,0.00,,,0.00,Wunderground v.1.15,2013-04-08 02:05:00,
2013-04-07 22:15:00,57.5,44.1,30.09,North,32767,-999.0,0.0,61,0.00,,,0.00,Wunderground v.1.15,2013-04-08 02:15:00,
2013-04-07 22:20:00,57.4,44.1,30.09,North,32767,-999.0,0.0,61,0.00,,,0.00,Wunderground v.1.15,2013-04-08 02:20:00,
2013-04-07 22:25:00,57.4,44.1,30.09,North,32767,-999.0,0.0,61,0.00,,,0.00,Wunderground v.1.15,2013-04-08 02:25:00,
2013-04-07 22:30:00,57.4,44.1,30.09,North,32767,-999.0,0.0,61,0.00,,,0.00,Wunderground v.1.15,2013-04-08 02:30:00,
2013-04-07 22:35:00,57.3,44.4,30.08,North,32767,-999.0,0.0,62,0.00,,,0.00,Wunderground v.1.15,2013-04-08 02:35:00,
2013-04-07 22:40:00,57.1,44.2,30.09,North,32767,-999.0,0.0,62,0.00,,,0.00,Wunderground v.1.15,2013-04-08 02:40:00,
2013-04-07 22:45:00,57.0,44.1,30.09,North,32767,-999.0,0.0,62,0.00,,,0.00,Wunderground v.1.15,2013-04-08 02:45:00,
2013-04-07 22:55:00,56.9,44.0,30.08,North,32767,-999.0,0.0,62,0.00,,,0.00,Wunderground v.1.15,2013-04-08 02:55:00,
2013-04-07 23:05:00,56.8,43.9,30.08,North,32767,-999.0,0.0,62,0.00,,,0.00,Wunderground v.1.15,2013-04-08 03:05:00,
2013-04-07 23:15:00,56.8,43.9,30.08,North,32767,-999.0,0.0,62,0.00,,,0.00,Wunderground v.1.15,2013-04-08 03:15:00,
2013-04-07 23:20:00,56.7,43.8,30.08,North,32767,-999.0,0.0,62,0.00,,,0.00,Wunderground v.1.15,2013-04-08 03:20:00,
2013-04-07 23:25:00,56.8,43.9,30.08,North,32767,-999.0,0.0,62,0.00,,,0.00,Wunderground v.1.15,2013-04-08 03:25:00,
2013-04-07 23:30:00,56.8,43.9,30.08,North,32767,-999.0,0.0,62,0.00,,,0.00,Wunderground v.1.15,2013-04-08 03:30:00,
2013-04-07 23:35:00,56.8,43.9,30.08,North,32767,-999.0,0.0,62,0.00,,,0.00,Wunderground v.1.15,2013-04-08 03:35:00,
2013-04-07 23:40:00,56.7,43.8,30.08,North,32767,-999.0,0.0,62,0.00,,,0.00,Wunderground v.1.15,2013-04-08 03:40:00,
2013-04-07 23:45:00,56.7,43.8,30.07,North,32767,-999.0,0.0,62,0.00,,,0.00,Wunderground v.1.15,2013-04-08 03:45:00,
2013-04-07 23:50:00,56.8,43.9,30.07,North,32767,-999.0,0.0,62,0.00,,,0.00,Wunderground v.1.15,2013-04-08 03:50:00,
2013-04-07 23:55:00,56.8,43.9,30.08,North,32767,-999.0,0.0,62,0.00,,,0.00,Wunderground v.1.15,2013-04-08 03:55:00,